User: anonymous   Login
Location: Tamazert
(32.6352°N, 5.2072°W)
Time: 14:28:42
(UTC+00:00)
Language:

Cosmos 1709 Rocket - Orbit

View from above orbital plane
View from above orbital plane
View from above satellite
View from above satellite

Ground track
Ground track

The orbit data is extracted from the following two-line orbital elements,

1 16369U 85116B   22221.76177236 -.00000050  00000-0 -66003-4 0  9990
2 16369  82.9364  30.3677 0035166 299.9443  70.4384 13.76910456840321
Epoch (UTC): 09 August 2022 18:16:57
Eccentricity: 0.0035166
inclination: 82.9364°
perigee height: 949 km
apogee height: 1001 km
right ascension of ascending node: 30.3677°
argument of perigee: 299.9443°
revolutions per day: 13.76910456
mean anomaly at epoch: 70.4384°
orbit number at epoch: 84032

The dashed part of the orbit path shows where the satellite is in the earth's shadow,  

DLR